Regional Weather Roundup
Issued by NWS

Home | Current Version | Previous Version | Graphics & Text | Print | Product List | Glossary On
Versions: 1 2 3 4 5 6 7 8 9 10 11 12 13 14 15 16 17 18 19 20 21 22 23 24 25 26 27 28 29 30 31 32 33 34 35 36 37 38 39 40 41 42 43 44 45 46 47 48 49 50
735
ASUS44 KMEG 121100
RWRTN
TENNESSEE HOURLY STATE WEATHER ROUNDUP
NATIONAL WEATHER SERVICE MEMPHIS TN
500 AM CST FRI FEB 12 2016

TNZ002-004-019-021-049-052-054-088>092-121200-
WEST TENNESSEE

CITY           SKY/WX    TMP DP  RH WIND       PRES   REMARKS
MEMPHIS INTL   CLEAR     35  24  64 CALM      30.16R
NWS MEMPHIS      N/A     31 N/A N/A MISG        N/A
JACKSON        CLOUDY    32  24  72 NE6       30.17R WCI  26
DYERSBURG      CLOUDY    34  23  64 E5        30.20S WCI  30
UNION CITY     CLOUDY    30  21  69 CALM      30.17F
PARIS          CLOUDY    28  19  69 E5        30.17F WCI  23
LEXINGTON      PTCLDY    30  21  69 CALM      30.14F
$$

TNZ008-025-027-028-033-062-065-066-121200-
NORTH MIDDLE TENNESSEE

CITY           SKY/WX    TMP DP  RH WIND       PRES   REMARKS
NASHVILLE      FLURRIES  34  21  59 E3        30.16F
CLARKSVILLE    CLOUDY    30  22  72 NE3       30.20R
COOKEVILLE       N/A     34  25  69 CALM      30.14R
CROSSVILLE     CLOUDY    32  23  69 S3        30.11R
$$

TNZ061-075-076-078-094-096-097-121200-
SOUTH MIDDLE TENNESSEE

CITY           SKY/WX    TMP DP  RH WIND       PRES   REMARKS
TULLAHOMA      CLEAR     34  25  69 CALM      30.13S
WINCHESTER     CLOUDY    36  27  69 SE5       30.14R WCI  32
MCMINNVILLE    MOCLDY    32  27  80 SE9G217   30.13S WCI  24
COLUMBIA       MOCLDY    34  28  80 NE3       30.14R
SHELBYVILLE    CLOUDY    34  27  75 CALM      30.15S
$$

TNZ017-018-042-046-047-121200-
NORTHEAST TENNESSEE

CITY           SKY/WX    TMP DP  RH WIND       PRES   REMARKS
TRI CITIES     CLOUDY    27  20  75 E3        30.13S
$$

TNZ012-013-036-069-073-074-121200-
CENTRAL EAST TENNESSEE

CITY           SKY/WX    TMP DP  RH WIND       PRES   REMARKS
KNOXVILLE      LGT SNOW  30  23  75 N6        30.14R WCI  24
OAK RIDGE      CLOUDY    33  18  53 CALM      30.17R
GATLINBURG     CLOUDY    28  21  74 CALM      30.13R
$$

TNZ083-085-099-121200-
SOUTHEAST TENNESSEE

CITY           SKY/WX    TMP DP  RH WIND       PRES   REMARKS
CHATTANOOGA    MOCLDY    35  21  56 CALM      30.17S
$$

SKY/WX REPORTED AS FAIR MEANS FEW OR NO CLOUDS BELOW
12 THOUSAND FEET.





USA.gov is the U.S. government's official web portal to all federal, state and local government web resources and services.